USA 40 R/B DEB, 23383

Orbit data source: Space-Track

USA 40 R/B DEB, 23383 is space debris originally from a launch on Tue, 08 Aug 1989 UTC launched from the Air Force Eastern Test Range (AFETR). Debris objects in space refer to the collection of defunct objects orbiting the Earth. Examples of debris include non-operational satellites, rocket bodies, and fragments generated from explosions, collisions, or faulty payload assembly.

Loading next visibility...
Identifier
23383, 1989-061BF
Orbit
Active
Country
Flag of USUS
Related business
Manufacturer
Unknown
Mission
Spacecraft
Bus & Motor
Unknown
Mass
Unknown
Launch date (UTC)
1989-08-08 (37 years ago)
Launch vehicle
Unknown
Launch site
Air Force Eastern Test Range (AFETR)
Object type
Payload
Rocket body
Debris
Shape & HBR
Unknown shape, 0.1 m
Radar Cross Section
Small (<0.1 m²)

Expand to show TLE details & history
Last TLE update: 9 hours ago

TLE from 9 hours ago
0 USA 40 R/B DEB
1 23383U 89061BF  26094.23314575  .00009190  00000-0  40475-2 0  9995
2 23383  57.0035 103.0653 2688392  81.1428 308.1050  9.58323939237102
Epoch: 2026-04-04T05:35Z
TLE epoch observation values (Epoch: 2026-04-04T05:35:43.792Z)
Latitude
-0.00008°
Longitude
-173.42308°
Altitude
1,960.053 km
Speed
7.284 km/s
True Right ascension
06h 52m 15s
True Declination
0° 00' 00"
Sunlit
Object was in daylight at epoch
Visualization orbit readout
Latitude
Unknown
Longitude
Unknown
Altitude
Unknown
Speed
Unknown
Apparent Right ascension
Unknown
Apparent Declination
Unknown
Sunlit
N/A
Visualization observer readout
Local Sidereal Time
20:50:03
Azimuth
Unknown
Elevation
Unknown
Doppler factor
Unknown
Orbital elements
Apogee altitude
5,501.058 km
Perigee altitude
467.176 km
Semi-major axis
9,362.254 km
Eccentricity
0.26884
Inclination
57.0035°
RAAN
103.0653°
Arg. of periapsis
81.1428°
True anomaly
278.94727°
Mean anomaly
308.105°
Eccentric anomaly
294.03743°
Mean motion
2.39592 °/min
Orbital period
150.26 mins
BSTAR
0.0040475
Loading maneuver chart data...
Computing Atmospheric mass density...
Loading historical data...
Loading historical data...
Loading historical data...
Loading historical data...
Loading historical data...
Loading historical data...
Loading historical data...

Documentation

Showing up to 5 results
|